Laramie, WY

3:12 PM MDT on April 20, 2018 (GMT -0600)
Laramie Regional

Weather History for KLAR - March, 2015

Change the Weather History Date:

Tuesday, March 24, 2015

  Actual Average Record
Temperature  
Mean Temperature 36 °F 33 °F  
Max Temperature 45 °F 45 °F 65 °F (1998)
Min Temperature 27 °F 20 °F -10 °F (1996)
Degree Days  
Heating Degree Days 29 32  
Month to date heating degree days 714 838  
Since 1 July heating degree days 6391 7014  
Cooling Degree Days 0 0  
Month to date cooling degree days 0 0  
Year to date cooling degree days 0 0  
Moisture  
Dew Point 21 °F    
Average Humidity 55    
Maximum Humidity 82    
Minimum Humidity 27    
Precipitation  
Precipitation T in 0.02 in 0.45 in (1959)
Month to date precipitation 0.11 0.43  
Year to date precipitation 0.90 1.04  
Sea Level Pressure  
Sea Level Pressure 29.89 in    
Wind  
Wind Speed 20 mph (West)    
Max Wind Speed 36 mph    
Max Gust Speed 46 mph    
Visibility 8 miles    
Events Rain , Snow    
T = Trace of Precipitation, MM = Missing Value Source: NWS Daily Summary

Daily Weather History Graph

Daily Weather History Graph

Search for Another Location

Airport or City:

Astronomy

Mar. 24, 2015 Rise Set
Actual Time 6:59 AM MDT 7:19 PM MDT
Civil Twilight 6:31 AM MDT 7:46 PM MDT
Nautical Twilight 5:59 AM MDT 8:19 PM MDT
Astronomical Twilight 5:26 AM MDT 8:52 PM MDT
Moon 9:56 AM MDT (3/24) No Moon Set
Length of Visible Light 13h 14m
Length of Day
12h 19m
Waxing Crescent, 24% of the Moon is Illuminated
Mar 24
Waxing Crescent
Mar 27
First Quarter
Apr 4
Full
Apr 11
Last Quarter
Apr 18
New

Hourly Weather History & Observations

Time (MDT) Temp. Windchill Dew Point Humidity Pressure Visibility Wind Dir Wind Speed Gust Speed Precip Events Conditions
12:53 AM 35.1 °F 24.1 °F 16.0 °F 46% 29.73 in 10.0 mi West 19.6 mph 28.8 mph N/A   Clear
1:53 AM 34.0 °F 22.4 °F 19.0 °F 54% 29.78 in 10.0 mi WSW 20.7 mph 29.9 mph N/A   Scattered Clouds
2:53 AM 34.0 °F 22.4 °F 19.0 °F 54% 29.78 in 10.0 mi West 20.7 mph 29.9 mph N/A   Partly Cloudy
3:53 AM 33.1 °F 18.9 °F 18.0 °F 54% 29.81 in 10.0 mi WSW 31.1 mph 38.0 mph N/A   Clear
4:53 AM 30.0 °F 16.9 °F 15.1 °F 54% 29.88 in 10.0 mi West 21.9 mph 29.9 mph N/A   Clear
5:53 AM 28.9 °F 14.8 °F 15.1 °F 56% 29.94 in 10.0 mi West 24.2 mph - N/A   Clear
6:53 AM 27.0 °F 14.3 °F 12.0 °F 53% 29.94 in 10.0 mi West 17.3 mph 28.8 mph N/A   Clear
7:53 AM 28.0 °F 15.3 °F 12.0 °F 51% 29.96 in 10.0 mi West 18.4 mph 27.6 mph N/A   Clear
8:53 AM 32.0 °F 20.8 °F 12.0 °F 44% 29.94 in 10.0 mi West 17.3 mph - N/A   Clear
9:53 AM 36.0 °F 24.2 °F 10.9 °F 36% 29.90 in 10.0 mi West 24.2 mph 33.4 mph N/A   Clear
10:53 AM 39.0 °F 28.5 °F 10.0 °F 30% 29.88 in 10.0 mi West 23.0 mph 33.4 mph N/A   Clear
11:53 AM 39.0 °F 28.0 °F 8.1 °F 28% 29.91 in 10.0 mi West 25.3 mph 36.8 mph N/A   Mostly Cloudy
12:53 PM 42.1 °F 30.6 °F 14.0 °F 32% 29.85 in 10.0 mi West 34.5 mph 42.6 mph N/A   Clear
1:53 PM 42.1 °F 31.7 °F 17.1 °F 37% 29.86 in 10.0 mi WSW 27.6 mph 39.1 mph N/A   Overcast
2:53 PM 42.1 °F 32.6 °F 17.1 °F 37% 29.83 in 10.0 mi SW 23.0 mph 34.5 mph N/A   Overcast
3:53 PM 45.0 °F 36.9 °F 17.1 °F 33% 29.81 in 10.0 mi WSW 20.7 mph 27.6 mph N/A   Overcast
4:53 PM 43.0 °F 34.2 °F 19.0 °F 38% 29.81 in 10.0 mi West 20.7 mph 25.3 mph N/A   Overcast
5:53 PM 39.9 °F 30.5 °F 24.1 °F 53% 29.85 in 10.0 mi WNW 19.6 mph 32.2 mph 0.00 in Rain Light Rain
6:53 PM 37.9 °F 28.5 °F 25.0 °F 60% 29.89 in 10.0 mi NW 17.3 mph - 0.00 in   Overcast
7:53 PM 36.0 °F 28.5 °F 27.0 °F 70% 29.92 in 10.0 mi WNW 10.4 mph - N/A   Overcast
8:32 PM 34.0 °F 23.8 °F 28.9 °F 82% 29.95 in 4.0 mi WNW 16.1 mph - 0.00 in Snow Light Snow
8:49 PM 32.0 °F 23.0 °F 30.2 °F 93% 29.96 in 2.0 mi West 11.5 mph - 0.00 in Snow Light Snow
8:53 PM 32.0 °F 24.2 °F 30.9 °F 96% 29.95 in 1.8 mi West 9.2 mph - 0.00 in Snow Light Snow
9:07 PM 32.0 °F 24.2 °F 30.9 °F 96% 29.96 in 3.0 mi West 9.2 mph - 0.00 in Snow Light Snow
9:29 PM 32.0 °F 22.5 °F 30.9 °F 96% 29.97 in 1.8 mi West 12.7 mph - 0.00 in Snow Light Snow
9:39 PM 32.0 °F 23.6 °F 30.9 °F 96% 29.97 in 3.0 mi WSW 10.4 mph - 0.00 in Snow Light Snow
9:50 PM 33.8 °F 24.3 °F 30.2 °F 87% 29.97 in 9.0 mi WSW 13.8 mph - 0.00 in   Overcast
9:53 PM 33.1 °F 23.4 °F 30.0 °F 89% 29.93 in 10.0 mi WSW 13.8 mph - 0.00 in   Overcast
10:53 PM 33.1 °F 26.1 °F 28.0 °F 82% 29.91 in 10.0 mi WSW 8.1 mph - N/A   Overcast
11:53 PM 33.1 °F 24.9 °F 28.0 °F 82% 29.92 in 10.0 mi North 10.4 mph - N/A   Overcast